Погода в Лозной

Россия / Белгородская область     49°57′17″N   38°45′35″E
темп.,
°C
ветер,
м/с
пор.,
м/с
влажн.,
%
обл.,
%
осадки,
мм/ч
давл.,
гПа
погр.,
м
22 октября, пт
пт2200:00+11юз9185589 0.0 1012714
03:00+10юз8185991 0.0 1011653
06:00+10юз81677100 0.0 1010623
09:00+11юз8157918 0.0 1011593
12:00+15зюз9125866 0.0 10111016
15:00+17зюз7105160 0.0 10111057
18:00+15зюз4105759 0.0 1012430
21:00+11зюз377012 0.0 1014125
23 октября, сб
сб2300:00+10зюз3361100 0.0 101442
03:00+10юз346399 0.0 101469
06:00+9ююз3474100 0.0 101463
09:00+12юз41064100 0.0 1014364
12:00+16юз6947100 0.0 1014866
15:00+16зюз71137100 0.0 10132038
18:00+12зюз51062100 0.1 1014676
21:00+10з611675 0.1 1015474
24 октября, вс
вс2400:00+6зсз410620 0.0 1017281
03:00+4зсз49801 0.0 1018239
06:00+2зсз359132 0.0 101996
09:00+5з46695 0.0 1020330
12:00+9зсз5649100 0.0 10191210
15:00+10зсз674191 0.0 10181867
18:00+5зюз495459 0.0 1019193
21:00+4сз7118889 0.0 1020516
25 октября, пн
пн2500:00+3сз51196100 0.2 1020707
03:00+3ссз7107284 0.3 10211106
06:00+2ссз7106995 0.0 10241107
09:00+2с7961100 0.1 10271149
12:00+3с6856100 0.0 10281236
15:00+4с675289 0.0 10301264
18:00+1ссз346138 0.0 103268
21:000с226622 0.0 103325
26 октября, вт
вт2600:00−1с22735 0.0 103418
03:00−2с11770 0.0 103510
06:00−2ссз11790 0.0 103510
09:00+1ююв00620 0.0 1036139
12:00+6ю33420 0.0 1035722
15:00+7ююз33335 0.0 1033927
18:00+3ююз224665 0.0 103317
21:00+2ююз3353100 0.0 103350